Time,TemperatureF,DewpointF,PressureIn,WindDirection,WindDirectionDegrees,WindSpeedMPH,WindSpeedGustMPH,Humidity,HourlyPrecipIn,Conditions,Clouds,dailyrainin,SoftwareType,DateUTC
2013-03-05 00:00:00,45.0,0.0,30.04,SW,236,1.0,1.0,48,-99.99,,,-99.99,,2013-03-05 08:00:00,
2013-03-05 00:08:00,46.0,0.0,30.04,West,265,1.0,2.0,47,-99.99,,,-99.99,,2013-03-05 08:08:00,
2013-03-05 00:16:00,42.0,0.0,30.04,WNW,284,0.0,0.0,47,-99.99,,,-99.99,,2013-03-05 08:16:00,
2013-03-05 00:24:00,42.0,0.0,30.04,SW,221,1.0,1.0,43,-99.99,,,-99.99,,2013-03-05 08:24:00,
2013-03-05 00:32:00,41.0,0.0,30.05,SW,236,0.0,1.0,48,-99.99,,,-99.99,,2013-03-05 08:32:00,
2013-03-05 00:40:00,40.0,0.0,30.05,SW,235,1.0,2.0,47,-99.99,,,-99.99,,2013-03-05 08:40:00,
2013-03-05 00:48:00,41.0,0.0,30.05,West,264,2.0,3.0,48,-99.99,,,-99.99,,2013-03-05 08:48:00,
2013-03-05 00:56:00,41.0,0.0,30.05,West,273,3.0,3.0,45,-99.99,,,-99.99,,2013-03-05 08:56:00,
2013-03-05 01:04:00,40.0,0.0,30.05,West,275,6.0,6.0,45,-99.99,,,-99.99,,2013-03-05 09:04:00,
2013-03-05 01:12:00,40.0,0.0,30.05,West,281,2.0,3.0,46,-99.99,,,-99.99,,2013-03-05 09:12:00,
2013-03-05 01:20:00,40.0,0.0,30.05,WSW,257,5.0,5.0,45,-99.99,,,-99.99,,2013-03-05 09:20:00,
2013-03-05 01:28:00,39.0,0.0,30.05,West,264,2.0,3.0,45,-99.99,,,-99.99,,2013-03-05 09:28:00,
2013-03-05 01:36:00,39.0,0.0,30.05,West,280,2.0,2.0,46,-99.99,,,-99.99,,2013-03-05 09:36:00,
2013-03-05 01:44:00,38.0,0.0,30.05,ESE,107,0.0,0.0,47,-99.99,,,-99.99,,2013-03-05 09:44:00,
2013-03-05 01:52:00,38.0,0.0,30.05,NE,52,3.0,3.0,45,-99.99,,,-99.99,,2013-03-05 09:52:00,
2013-03-05 02:00:00,36.0,0.0,30.04,NE,54,2.0,2.0,47,-99.99,,,-99.99,,2013-03-05 10:00:00,
2013-03-05 02:08:00,38.0,0.0,30.04,SE,128,2.0,2.0,50,-99.99,,,-99.99,,2013-03-05 10:08:00,
2013-03-05 02:16:00,39.0,0.0,30.04,South,173,2.0,2.0,46,-99.99,,,-99.99,,2013-03-05 10:16:00,
2013-03-05 02:24:00,40.0,0.0,30.04,South,173,3.0,3.0,44,-99.99,,,-99.99,,2013-03-05 10:24:00,
2013-03-05 02:32:00,40.0,0.0,30.03,SSW,195,2.0,2.0,45,-99.99,,,-99.99,,2013-03-05 10:32:00,
2013-03-05 02:40:00,41.0,0.0,30.03,WSW,248,2.0,2.0,46,-99.99,,,-99.99,,2013-03-05 10:40:00,
2013-03-05 02:48:00,40.0,0.0,30.03,WSW,250,2.0,2.0,47,-99.99,,,-99.99,,2013-03-05 10:48:00,
2013-03-05 02:56:00,39.0,0.0,30.02,WSW,249,6.0,6.0,46,-99.99,,,-99.99,,2013-03-05 10:56:00,
2013-03-05 03:04:00,0.0,0.0,-0.01,North,0,0.0,0.0,0,-99.99,,,-99.99,,2013-03-05 11:04:00,
2013-03-05 03:12:00,38.0,0.0,30.02,WSW,241,6.0,6.0,50,-99.99,,,-99.99,,2013-03-05 11:12:00,
2013-03-05 03:20:00,38.0,0.0,30.02,West,279,6.0,7.0,51,-99.99,,,-99.99,,2013-03-05 11:20:00,
2013-03-05 03:28:00,37.0,0.0,30.02,West,273,5.0,5.0,54,-99.99,,,-99.99,,2013-03-05 11:28:00,
2013-03-05 03:36:00,37.0,0.0,30.02,West,259,5.0,5.0,51,-99.99,,,-99.99,,2013-03-05 11:36:00,
2013-03-05 03:44:00,36.0,0.0,30.02,West,275,2.0,3.0,51,-99.99,,,-99.99,,2013-03-05 11:44:00,
2013-03-05 03:52:00,35.0,0.0,30.03,WSW,240,0.0,0.0,52,-99.99,,,-99.99,,2013-03-05 11:52:00,
2013-03-05 04:00:00,36.0,0.0,30.03,SSW,206,2.0,2.0,53,-99.99,,,-99.99,,2013-03-05 12:00:00,
2013-03-05 04:08:00,36.0,0.0,30.03,South,178,3.0,3.0,52,-99.99,,,-99.99,,2013-03-05 12:08:00,
2013-03-05 04:16:00,35.0,0.0,30.03,ESE,104,5.0,5.0,50,-99.99,,,-99.99,,2013-03-05 12:16:00,
2013-03-05 04:24:00,34.0,0.0,30.04,ESE,110,5.0,6.0,57,-99.99,,,-99.99,,2013-03-05 12:24:00,
2013-03-05 04:32:00,34.0,0.0,30.03,ESE,107,6.0,6.0,56,-99.99,,,-99.99,,2013-03-05 12:32:00,
2013-03-05 04:40:00,35.0,0.0,30.04,ESE,115,5.0,5.0,55,-99.99,,,-99.99,,2013-03-05 12:40:00,
2013-03-05 04:48:00,36.0,0.0,30.04,East,92,2.0,3.0,55,-99.99,,,-99.99,,2013-03-05 12:48:00,
2013-03-05 04:56:00,36.0,0.0,30.04,East,80,5.0,5.0,56,-99.99,,,-99.99,,2013-03-05 12:56:00,
2013-03-05 05:04:00,37.0,0.0,30.04,ENE,57,3.0,3.0,57,-99.99,,,-99.99,,2013-03-05 13:04:00,
2013-03-05 05:12:00,38.0,0.0,30.04,NE,45,2.0,2.0,53,-99.99,,,-99.99,,2013-03-05 13:12:00,
2013-03-05 05:20:00,37.0,0.0,30.04,East,86,2.0,2.0,57,-99.99,,,-99.99,,2013-03-05 13:20:00,
2013-03-05 05:28:00,39.0,0.0,30.04,SW,227,2.0,2.0,54,-99.99,,,-99.99,,2013-03-05 13:28:00,
2013-03-05 05:36:00,36.0,0.0,30.04,NW,304,7.0,7.0,45,-99.99,,,-99.99,,2013-03-05 13:36:00,
2013-03-05 05:44:00,33.0,0.0,30.04,NW,311,6.0,6.0,52,-99.99,,,-99.99,,2013-03-05 13:44:00,
2013-03-05 05:52:00,32.0,0.0,30.04,WNW,297,7.0,7.0,53,-99.99,,,-99.99,,2013-03-05 13:52:00,
2013-03-05 06:00:00,33.0,0.0,30.04,NW,304,6.0,6.0,53,-99.99,,,-99.99,,2013-03-05 14:00:00,
2013-03-05 06:08:00,33.0,0.0,30.04,WNW,298,7.0,7.0,52,-99.99,,,-99.99,,2013-03-05 14:08:00,
2013-03-05 06:16:00,33.0,0.0,30.04,West,272,6.0,7.0,54,-99.99,,,-99.99,,2013-03-05 14:16:00,
2013-03-05 06:24:00,33.0,0.0,30.04,West,277,6.0,6.0,53,-99.99,,,-99.99,,2013-03-05 14:24:00,
2013-03-05 06:32:00,33.0,0.0,30.04,WNW,298,6.0,6.0,53,-99.99,,,-99.99,,2013-03-05 14:32:00,
2013-03-05 06:40:00,34.0,0.0,30.04,NE,46,5.0,5.0,54,-99.99,,,-99.99,,2013-03-05 14:40:00,
2013-03-05 06:48:00,35.0,0.0,30.04,ENE,76,3.0,3.0,52,-99.99,,,-99.99,,2013-03-05 14:48:00,
2013-03-05 06:56:00,36.0,0.0,30.04,ESE,107,2.0,2.0,51,-99.99,,,-99.99,,2013-03-05 14:56:00,
2013-03-05 07:04:00,36.0,0.0,30.04,ENE,75,2.0,2.0,53,-99.99,,,-99.99,,2013-03-05 15:04:00,
2013-03-05 07:12:00,37.0,0.0,30.04,SE,127,3.0,3.0,50,-99.99,,,-99.99,,2013-03-05 15:12:00,
2013-03-05 07:20:00,40.0,0.0,30.05,SSE,162,2.0,3.0,46,-99.99,,,-99.99,,2013-03-05 15:20:00,
2013-03-05 07:28:00,41.0,0.0,30.05,SE,130,3.0,3.0,45,-99.99,,,-99.99,,2013-03-05 15:28:00,
2013-03-05 07:36:00,42.0,0.0,30.05,SE,130,3.0,3.0,47,-99.99,,,-99.99,,2013-03-05 15:36:00,
2013-03-05 07:44:00,44.0,0.0,30.05,SSE,150,2.0,3.0,45,-99.99,,,-99.99,,2013-03-05 15:44:00,
2013-03-05 07:52:00,47.0,0.0,30.05,SSE,164,2.0,3.0,40,-99.99,,,-99.99,,2013-03-05 15:52:00,
2013-03-05 08:00:00,48.0,0.0,30.05,SSW,195,2.0,2.0,38,-99.99,,,-99.99,,2013-03-05 16:00:00,
2013-03-05 08:08:00,47.0,0.0,30.05,South,183,5.0,5.0,42,-99.99,,,-99.99,,2013-03-05 16:08:00,
2013-03-05 08:16:00,48.0,0.0,30.05,South,174,2.0,3.0,41,-99.99,,,-99.99,,2013-03-05 16:16:00,
2013-03-05 08:24:00,48.0,0.0,30.05,SW,229,2.0,2.0,40,-99.99,,,-99.99,,2013-03-05 16:24:00,
2013-03-05 08:32:00,51.0,0.0,30.05,West,281,0.0,0.0,37,-99.99,,,-99.99,,2013-03-05 16:32:00,
2013-03-05 08:40:00,52.0,0.0,30.05,NNE,19,1.0,1.0,38,-99.99,,,-99.99,,2013-03-05 16:40:00,
2013-03-05 08:48:00,55.0,0.0,30.05,NE,50,0.0,0.0,34,-99.99,,,-99.99,,2013-03-05 16:48:00,
2013-03-05 08:56:00,55.0,0.0,30.05,SW,215,0.0,0.0,33,-99.99,,,-99.99,,2013-03-05 16:56:00,
2013-03-05 09:04:00,55.0,0.0,30.05,SSW,203,1.0,1.0,33,-99.99,,,-99.99,,2013-03-05 17:04:00,
2013-03-05 09:12:00,56.0,0.0,30.05,SSE,161,2.0,2.0,33,-99.99,,,-99.99,,2013-03-05 17:12:00,
2013-03-05 09:20:00,57.0,0.0,30.05,SSW,194,1.0,1.0,32,-99.99,,,-99.99,,2013-03-05 17:20:00,
2013-03-05 09:28:00,59.0,0.0,30.05,SE,134,1.0,2.0,31,-99.99,,,-99.99,,2013-03-05 17:28:00,
2013-03-05 09:36:00,60.0,0.0,30.05,SE,143,1.0,2.0,32,-99.99,,,-99.99,,2013-03-05 17:36:00,
2013-03-05 09:44:00,61.0,0.0,30.04,SE,139,2.0,2.0,30,-99.99,,,-99.99,,2013-03-05 17:44:00,
2013-03-05 09:52:00,61.0,0.0,30.04,ESE,119,5.0,5.0,31,-99.99,,,-99.99,,2013-03-05 17:52:00,
2013-03-05 10:00:00,62.0,0.0,30.04,South,177,3.0,3.0,33,-99.99,,,-99.99,,2013-03-05 18:00:00,
2013-03-05 10:08:00,63.0,0.0,30.04,ENE,78,2.0,2.0,33,-99.99,,,-99.99,,2013-03-05 18:08:00,
2013-03-05 10:16:00,65.0,0.0,30.04,SE,134,2.0,3.0,31,-99.99,,,-99.99,,2013-03-05 18:16:00,
2013-03-05 10:24:00,65.0,0.0,30.04,SSE,160,3.0,5.0,33,-99.99,,,-99.99,,2013-03-05 18:24:00,
2013-03-05 10:32:00,65.0,0.0,30.03,South,188,5.0,5.0,35,-99.99,,,-99.99,,2013-03-05 18:32:00,
2013-03-05 10:40:00,66.0,0.0,30.03,East,95,3.0,3.0,31,-99.99,,,-99.99,,2013-03-05 18:40:00,
2013-03-05 10:48:00,66.0,0.0,30.03,South,179,5.0,5.0,32,-99.99,,,-99.99,,2013-03-05 18:48:00,
2013-03-05 10:56:00,67.0,0.0,30.03,SSE,162,2.0,3.0,32,-99.99,,,-99.99,,2013-03-05 18:56:00,
2013-03-05 11:04:00,0.0,0.0,-0.01,North,0,0.0,0.0,0,-99.99,,,-99.99,,2013-03-05 19:04:00,
2013-03-05 11:12:00,68.0,0.0,30.02,South,183,2.0,3.0,29,-99.99,,,-99.99,,2013-03-05 19:12:00,
2013-03-05 11:20:00,68.0,0.0,30.02,SSE,154,3.0,5.0,29,-99.99,,,-99.99,,2013-03-05 19:20:00,
2013-03-05 11:28:00,67.0,0.0,30.01,South,175,8.0,8.0,32,-99.99,,,-99.99,,2013-03-05 19:28:00,
2013-03-05 11:36:00,68.0,0.0,30.01,SE,125,9.0,10.0,30,-99.99,,,-99.99,,2013-03-05 19:36:00,
2013-03-05 11:44:00,69.0,0.0,30.00,SSE,168,8.0,8.0,28,-99.99,,,-99.99,,2013-03-05 19:44:00,
2013-03-05 11:52:00,70.0,0.0,29.99,ENE,77,1.0,5.0,30,-99.99,,,-99.99,,2013-03-05 19:52:00,
2013-03-05 12:00:00,71.0,0.0,29.98,South,186,16.0,16.0,29,-99.99,,,-99.99,,2013-03-05 20:00:00,
2013-03-05 12:08:00,70.0,0.0,29.98,NW,307,0.0,2.0,28,-99.99,,,-99.99,,2013-03-05 20:08:00,
2013-03-05 12:16:00,71.0,0.0,29.95,SSW,198,18.0,18.0,26,-99.99,,,-99.99,,2013-03-05 20:16:00,
2013-03-05 12:24:00,72.0,0.0,29.96,SSW,196,13.0,13.0,22,-99.99,,,-99.99,,2013-03-05 20:24:00,
2013-03-05 12:32:00,72.0,0.0,29.96,SSW,208,14.0,17.0,18,-99.99,,,-99.99,,2013-03-05 20:32:00,
2013-03-05 12:40:00,73.0,0.0,29.95,SSW,203,20.0,20.0,23,-99.99,,,-99.99,,2013-03-05 20:40:00,
2013-03-05 12:48:00,73.0,0.0,29.95,South,169,6.0,15.0,18,-99.99,,,-99.99,,2013-03-05 20:48:00,
2013-03-05 12:56:00,73.0,0.0,29.94,SW,231,22.0,22.0,19,-99.99,,,-99.99,,2013-03-05 20:56:00,
2013-03-05 13:04:00,73.0,0.0,29.94,South,173,17.0,17.0,20,-99.99,,,-99.99,,2013-03-05 21:04:00,
2013-03-05 13:12:00,73.0,0.0,29.93,South,178,10.0,15.0,22,-99.99,,,-99.99,,2013-03-05 21:12:00,
2013-03-05 13:20:00,73.0,0.0,29.93,South,178,10.0,15.0,22,-99.99,,,-99.99,,2013-03-05 21:20:00,
2013-03-05 13:28:00,73.0,0.0,29.93,South,174,16.0,17.0,23,-99.99,,,-99.99,,2013-03-05 21:28:00,
2013-03-05 13:36:00,72.0,0.0,29.92,South,177,20.0,21.0,24,-99.99,,,-99.99,,2013-03-05 21:36:00,
2013-03-05 13:44:00,72.0,0.0,29.91,South,171,21.0,21.0,22,-99.99,,,-99.99,,2013-03-05 21:44:00,
2013-03-05 13:52:00,73.0,0.0,29.91,South,185,14.0,15.0,23,-99.99,,,-99.99,,2013-03-05 21:52:00,
2013-03-05 14:00:00,72.0,0.0,29.91,SSW,192,23.0,23.0,24,-99.99,,,-99.99,,2013-03-05 22:00:00,
2013-03-05 14:08:00,73.0,0.0,29.90,South,187,16.0,18.0,25,-99.99,,,-99.99,,2013-03-05 22:08:00,
2013-03-05 14:16:00,73.0,0.0,29.90,SSW,194,16.0,17.0,25,-99.99,,,-99.99,,2013-03-05 22:16:00,
2013-03-05 14:24:00,72.0,0.0,29.89,South,187,15.0,18.0,23,-99.99,,,-99.99,,2013-03-05 22:24:00,
2013-03-05 14:32:00,73.0,0.0,29.89,South,184,26.0,26.0,25,-99.99,,,-99.99,,2013-03-05 22:32:00,
2013-03-05 14:40:00,74.0,0.0,29.89,SE,146,13.0,15.0,24,-99.99,,,-99.99,,2013-03-05 22:40:00,
2013-03-05 14:48:00,73.0,0.0,29.89,SSW,197,16.0,16.0,24,-99.99,,,-99.99,,2013-03-05 22:48:00,
2013-03-05 14:56:00,73.0,0.0,29.89,SSW,195,16.0,18.0,22,-99.99,,,-99.99,,2013-03-05 22:56:00,
2013-03-05 15:04:00,72.0,0.0,29.89,SSW,209,17.0,18.0,23,-99.99,,,-99.99,,2013-03-05 23:04:00,
2013-03-05 15:12:00,73.0,0.0,29.89,SW,236,15.0,16.0,22,-99.99,,,-99.99,,2013-03-05 23:12:00,
2013-03-05 15:20:00,73.0,0.0,29.89,SSE,165,14.0,16.0,21,-99.99,,,-99.99,,2013-03-05 23:20:00,
2013-03-05 15:28:00,73.0,0.0,29.88,SW,219,17.0,18.0,20,-99.99,,,-99.99,,2013-03-05 23:28:00,
2013-03-05 15:36:00,73.0,0.0,29.87,SSW,203,17.0,17.0,23,-99.99,,,-99.99,,2013-03-05 23:36:00,
2013-03-05 15:44:00,72.0,0.0,29.87,SSE,165,14.0,16.0,23,-99.99,,,-99.99,,2013-03-05 23:44:00,
2013-03-05 15:52:00,72.0,0.0,29.87,SSW,193,13.0,16.0,24,-99.99,,,-99.99,,2013-03-05 23:52:00,
2013-03-05 16:00:00,72.0,0.0,29.87,South,176,16.0,21.0,21,-99.99,,,-99.99,,2013-03-06 00:00:00,
2013-03-05 16:08:00,72.0,0.0,29.87,SSW,211,13.0,18.0,21,-99.99,,,-99.99,,2013-03-06 00:08:00,
2013-03-05 16:16:00,72.0,0.0,29.86,SSW,208,25.0,25.0,21,-99.99,,,-99.99,,2013-03-06 00:16:00,
2013-03-05 16:24:00,71.0,0.0,29.86,SW,221,21.0,21.0,22,-99.99,,,-99.99,,2013-03-06 00:24:00,
2013-03-05 16:32:00,71.0,0.0,29.86,South,188,20.0,20.0,22,-99.99,,,-99.99,,2013-03-06 00:32:00,
2013-03-05 16:40:00,70.0,0.0,29.86,SSE,164,12.0,18.0,21,-99.99,,,-99.99,,2013-03-06 00:40:00,
2013-03-05 16:48:00,70.0,0.0,29.86,SW,218,22.0,22.0,24,-99.99,,,-99.99,,2013-03-06 00:48:00,
2013-03-05 16:56:00,69.0,0.0,29.85,SW,220,16.0,18.0,23,-99.99,,,-99.99,,2013-03-06 00:56:00,
2013-03-05 17:04:00,69.0,0.0,29.85,SW,220,23.0,23.0,26,-99.99,,,-99.99,,2013-03-06 01:04:00,
2013-03-05 17:12:00,68.0,0.0,29.85,SSW,210,16.0,18.0,27,-99.99,,,-99.99,,2013-03-06 01:12:00,
2013-03-05 17:20:00,68.0,0.0,29.85,SSW,207,14.0,20.0,27,-99.99,,,-99.99,,2013-03-06 01:20:00,
2013-03-05 17:28:00,67.0,0.0,29.85,SSW,205,12.0,20.0,26,-99.99,,,-99.99,,2013-03-06 01:28:00,
2013-03-05 17:36:00,67.0,0.0,29.85,SSW,206,20.0,20.0,24,-99.99,,,-99.99,,2013-03-06 01:36:00,
2013-03-05 17:44:00,66.0,0.0,29.85,SSW,200,23.0,23.0,23,-99.99,,,-99.99,,2013-03-06 01:44:00,
2013-03-05 17:52:00,66.0,0.0,29.85,SSW,195,13.0,18.0,21,-99.99,,,-99.99,,2013-03-06 01:52:00,
2013-03-05 18:00:00,66.0,0.0,29.85,SSW,208,13.0,18.0,20,-99.99,,,-99.99,,2013-03-06 02:00:00,
2013-03-05 18:08:00,65.0,0.0,29.86,SSW,205,13.0,15.0,22,-99.99,,,-99.99,,2013-03-06 02:08:00,
2013-03-05 18:16:00,64.0,0.0,29.86,SSW,193,9.0,15.0,20,-99.99,,,-99.99,,2013-03-06 02:16:00,
2013-03-05 18:24:00,64.0,0.0,29.86,SSW,192,9.0,14.0,23,-99.99,,,-99.99,,2013-03-06 02:24:00,
2013-03-05 18:32:00,64.0,0.0,29.87,SSW,205,14.0,14.0,22,-99.99,,,-99.99,,2013-03-06 02:32:00,
2013-03-05 18:40:00,64.0,0.0,29.87,SSW,204,20.0,20.0,21,-99.99,,,-99.99,,2013-03-06 02:40:00,
2013-03-05 18:48:00,64.0,0.0,29.87,SSW,204,20.0,20.0,21,-99.99,,,-99.99,,2013-03-06 02:48:00,
2013-03-05 18:56:00,64.0,0.0,29.87,SSW,204,20.0,20.0,21,-99.99,,,-99.99,,2013-03-06 02:56:00,
2013-03-05 19:04:00,64.0,0.0,29.87,SSW,204,20.0,20.0,21,-99.99,,,-99.99,,2013-03-06 03:04:00,
2013-03-05 19:12:00,64.0,0.0,29.87,SSW,204,20.0,20.0,21,-99.99,,,-99.99,,2013-03-06 03:12:00,
2013-03-05 19:20:00,64.0,0.0,29.87,SSW,204,20.0,20.0,21,-99.99,,,-99.99,,2013-03-06 03:20:00,
2013-03-05 19:28:00,64.0,0.0,29.87,SSW,204,20.0,20.0,21,-99.99,,,-99.99,,2013-03-06 03:28:00,
2013-03-05 19:36:00,64.0,0.0,29.87,SSW,204,20.0,20.0,21,-99.99,,,-99.99,,2013-03-06 03:36:00,
2013-03-05 19:44:00,64.0,0.0,29.87,SSW,204,20.0,20.0,21,-99.99,,,-99.99,,2013-03-06 03:44:00,
2013-03-05 19:52:00,64.0,0.0,29.87,SSW,204,20.0,20.0,21,-99.99,,,-99.99,,2013-03-06 03:52:00,
2013-03-05 20:00:00,64.0,0.0,29.87,SSW,204,20.0,20.0,21,-99.99,,,-99.99,,2013-03-06 04:00:00,
2013-03-05 20:08:00,64.0,0.0,29.87,SSW,204,20.0,20.0,21,-99.99,,,-99.99,,2013-03-06 04:08:00,
2013-03-05 20:16:00,64.0,0.0,29.87,SSW,204,20.0,20.0,21,-99.99,,,-99.99,,2013-03-06 04:16:00,
2013-03-05 20:24:00,64.0,0.0,29.87,SSW,204,20.0,20.0,21,-99.99,,,-99.99,,2013-03-06 04:24:00,
2013-03-05 20:32:00,64.0,0.0,29.87,SSW,204,20.0,20.0,21,-99.99,,,-99.99,,2013-03-06 04:32:00,
2013-03-05 20:40:00,64.0,0.0,29.87,SSW,204,20.0,20.0,21,-99.99,,,-99.99,,2013-03-06 04:40:00,
2013-03-05 20:48:00,64.0,0.0,29.87,SSW,204,20.0,20.0,21,-99.99,,,-99.99,,2013-03-06 04:48:00,
2013-03-05 20:56:00,64.0,0.0,29.87,SSW,204,20.0,20.0,21,-99.99,,,-99.99,,2013-03-06 04:56:00,
2013-03-05 21:00:00,64.0,0.0,29.87,SSW,204,20.0,20.0,21,-99.99,,,-99.99,,2013-03-06 05:00:00,
2013-03-05 21:08:00,64.0,0.0,29.87,SSW,204,20.0,20.0,21,-99.99,,,-99.99,,2013-03-06 05:08:00,
2013-03-05 21:12:00,64.0,0.0,29.87,SSW,204,20.0,20.0,21,-99.99,,,-99.99,,2013-03-06 05:12:00,
2013-03-05 21:20:00,64.0,0.0,29.87,SSW,204,20.0,20.0,21,-99.99,,,-99.99,,2013-03-06 05:20:00,
2013-03-05 21:28:00,64.0,0.0,29.87,SSW,204,20.0,20.0,21,-99.99,,,-99.99,,2013-03-06 05:28:00,
2013-03-05 21:32:00,64.0,0.0,29.87,SSW,204,20.0,20.0,21,-99.99,,,-99.99,,2013-03-06 05:32:00,
2013-03-05 21:40:00,64.0,0.0,29.87,SSW,204,20.0,20.0,21,-99.99,,,-99.99,,2013-03-06 05:40:00,
2013-03-05 21:48:00,64.0,0.0,29.87,SSW,204,20.0,20.0,21,-99.99,,,-99.99,,2013-03-06 05:48:00,
2013-03-05 21:56:00,64.0,0.0,29.87,SSW,204,20.0,20.0,21,-99.99,,,-99.99,,2013-03-06 05:56:00,
2013-03-05 22:04:00,64.0,0.0,29.87,SSW,204,20.0,20.0,21,-99.99,,,-99.99,,2013-03-06 06:04:00,
2013-03-05 22:12:00,64.0,0.0,29.87,SSW,204,20.0,20.0,21,-99.99,,,-99.99,,2013-03-06 06:12:00,
2013-03-05 22:20:00,64.0,0.0,29.87,SSW,204,20.0,20.0,21,-99.99,,,-99.99,,2013-03-06 06:20:00,
2013-03-05 22:28:00,64.0,0.0,29.87,SSW,204,20.0,20.0,21,-99.99,,,-99.99,,2013-03-06 06:28:00,
2013-03-05 22:36:00,64.0,0.0,29.87,SSW,204,20.0,20.0,21,-99.99,,,-99.99,,2013-03-06 06:36:00,
2013-03-05 22:44:00,64.0,0.0,29.87,SSW,204,20.0,20.0,21,-99.99,,,-99.99,,2013-03-06 06:44:00,
2013-03-05 22:52:00,64.0,0.0,29.87,SSW,204,20.0,20.0,21,-99.99,,,-99.99,,2013-03-06 06:52:00,
2013-03-05 23:00:00,64.0,0.0,29.87,SSW,204,20.0,20.0,21,-99.99,,,-99.99,,2013-03-06 07:00:00,
2013-03-05 23:08:00,64.0,0.0,29.87,SSW,204,20.0,20.0,21,-99.99,,,-99.99,,2013-03-06 07:08:00,
2013-03-05 23:16:00,64.0,0.0,29.87,SSW,204,20.0,20.0,21,-99.99,,,-99.99,,2013-03-06 07:16:00,
2013-03-05 23:24:00,64.0,0.0,29.87,SSW,204,20.0,20.0,21,-99.99,,,-99.99,,2013-03-06 07:24:00,
2013-03-05 23:32:00,64.0,0.0,29.87,SSW,204,20.0,20.0,21,-99.99,,,-99.99,,2013-03-06 07:32:00,
2013-03-05 23:40:00,64.0,0.0,29.87,SSW,204,20.0,20.0,21,-99.99,,,-99.99,,2013-03-06 07:40:00,
2013-03-05 23:48:00,64.0,0.0,29.87,SSW,204,20.0,20.0,21,-99.99,,,-99.99,,2013-03-06 07:48:00,
2013-03-05 23:56:00,64.0,0.0,29.87,SSW,204,20.0,20.0,21,-99.99,,,-99.99,,2013-03-06 07:56:00,